Time,TemperatureF,DewpointF,PressureIn,WindDirection,WindDirectionDegrees,WindSpeedMPH,WindSpeedGustMPH,Humidity,HourlyPrecipIn,Conditions,Clouds,dailyrainin,SoftwareType,DateUTC
2015-09-02 00:00:00,70.0,42.0,-100.00,South,170,11.0,14.0,36,-99.99,,,-99.99,,2015-09-02 06:00:00,
2015-09-02 00:23:00,70.0,42.0,-100.00,South,170,11.0,14.0,36,-99.99,,,-99.99,,2015-09-02 06:23:00,
2015-09-02 00:34:00,70.0,42.0,-100.00,South,170,11.0,14.0,36,-99.99,,,-99.99,,2015-09-02 06:34:00,
2015-09-02 00:44:00,70.0,42.0,-100.00,South,170,11.0,14.0,36,-99.99,,,-99.99,,2015-09-02 06:44:00,
2015-09-02 00:53:00,70.0,42.0,-100.00,South,170,11.0,14.0,36,-99.99,,,-99.99,,2015-09-02 06:53:00,
2015-09-02 01:00:00,65.0,37.0,-100.00,West,259,6.0,14.0,36,-99.99,,,-99.99,,2015-09-02 07:00:00,
2015-09-02 01:23:00,65.0,37.0,-100.00,West,259,6.0,14.0,36,-99.99,,,-99.99,,2015-09-02 07:23:00,
2015-09-02 01:33:00,65.0,37.0,-100.00,West,259,6.0,14.0,36,-99.99,,,-99.99,,2015-09-02 07:33:00,
2015-09-02 01:44:00,65.0,37.0,-100.00,West,259,6.0,14.0,36,-99.99,,,-99.99,,2015-09-02 07:44:00,
2015-09-02 01:53:00,65.0,37.0,-100.00,West,259,6.0,14.0,36,-99.99,,,-99.99,,2015-09-02 07:53:00,
2015-09-02 02:00:00,65.0,43.0,-100.00,WSW,242,8.0,9.0,44,-99.99,,,-99.99,,2015-09-02 08:00:00,
2015-09-02 02:23:00,65.0,43.0,-100.00,WSW,242,8.0,9.0,44,-99.99,,,-99.99,,2015-09-02 08:23:00,
2015-09-02 02:33:00,65.0,43.0,-100.00,WSW,242,8.0,9.0,44,-99.99,,,-99.99,,2015-09-02 08:33:00,
2015-09-02 02:43:00,65.0,43.0,-100.00,WSW,242,8.0,9.0,44,-99.99,,,-99.99,,2015-09-02 08:43:00,
2015-09-02 02:53:00,65.0,43.0,-100.00,WSW,242,8.0,9.0,44,-99.99,,,-99.99,,2015-09-02 08:53:00,
2015-09-02 03:00:00,58.0,36.0,-100.00,South,180,4.0,11.0,43,-99.99,,,-99.99,,2015-09-02 09:00:00,
2015-09-02 03:23:00,58.0,36.0,-100.00,South,180,4.0,11.0,43,-99.99,,,-99.99,,2015-09-02 09:23:00,
2015-09-02 03:33:00,58.0,36.0,-100.00,South,180,4.0,11.0,43,-99.99,,,-99.99,,2015-09-02 09:33:00,
2015-09-02 03:44:00,58.0,36.0,-100.00,South,180,4.0,11.0,43,-99.99,,,-99.99,,2015-09-02 09:44:00,
2015-09-02 03:53:00,58.0,36.0,-100.00,South,180,4.0,11.0,43,-99.99,,,-99.99,,2015-09-02 09:53:00,
2015-09-02 04:00:00,58.0,37.0,-100.00,South,185,6.0,7.0,46,-99.99,,,-99.99,,2015-09-02 10:00:00,
2015-09-02 04:24:00,58.0,37.0,-100.00,South,185,6.0,7.0,46,-99.99,,,-99.99,,2015-09-02 10:24:00,
2015-09-02 04:33:00,58.0,37.0,-100.00,South,185,6.0,7.0,46,-99.99,,,-99.99,,2015-09-02 10:33:00,
2015-09-02 04:44:00,58.0,37.0,-100.00,South,185,6.0,7.0,46,-99.99,,,-99.99,,2015-09-02 10:44:00,
2015-09-02 04:53:00,58.0,37.0,-100.00,South,185,6.0,7.0,46,-99.99,,,-99.99,,2015-09-02 10:53:00,
2015-09-02 05:00:00,55.0,37.0,-100.00,SSE,154,4.0,7.0,51,-99.99,,,-99.99,,2015-09-02 11:00:00,
2015-09-02 05:24:00,55.0,37.0,-100.00,SSE,154,4.0,7.0,51,-99.99,,,-99.99,,2015-09-02 11:24:00,
2015-09-02 05:34:00,55.0,37.0,-100.00,SSE,154,4.0,7.0,51,-99.99,,,-99.99,,2015-09-02 11:34:00,
2015-09-02 05:44:00,55.0,37.0,-100.00,SSE,154,4.0,7.0,51,-99.99,,,-99.99,,2015-09-02 11:44:00,
2015-09-02 05:54:00,55.0,37.0,-100.00,SSE,154,4.0,7.0,51,-99.99,,,-99.99,,2015-09-02 11:54:00,
2015-09-02 06:00:00,50.0,38.0,-100.00,SSE,149,1.0,7.0,62,-99.99,,,-99.99,,2015-09-02 12:00:00,